User: anonymous   Login
Location: Unspecified
(0.0000°N, 0.0000°E)
Time: 07:44:32
(UTC+00:00)
Language:

STARLINK-31036 - Orbit

View from above orbital plane
View from above orbital plane
View from above satellite
View from above satellite

Ground track
Ground track

The orbit is defined by the following mean orbital elements,

1 58533U          26145.49345750 +.00000000 +00000-0 +11739-3 0 00006
2 58533  53.1627  65.3714 0001248 102.1951 257.9192 15.34369352    06
Epoch (UTC): 25 May 2026 11:50:34
Eccentricity: 0.0001248
inclination: 53.1627°
perigee height: 462 km
apogee height: 464 km
right ascension of ascending node: 65.3714°
argument of perigee: 102.1951°
revolutions per day: 15.34369352
mean anomaly at epoch: 257.9192°

The dashed part of the orbit path shows where the satellite is in the earth's shadow,  

DLR